User: anonymous   Login
Location: Newark
(41.9364°N, 2.8061°E)
Time: 16:43:12
(UTC+00:00)
Language:

A-11 Canister half - Orbit

View from above orbital plane
View from above orbital plane
View from above satellite
View from above satellite

Ground track
Ground track

The orbit data is extracted from the following two-line orbital elements,

1 00051U 60009C   21170.62958679 -.00000061  00000-0  23446-3 0  9994
2 00051  47.2136 291.4711 0108508 174.6504 185.5468 12.18277027708857
Epoch (UTC): 19 June 2021 15:06:36
Eccentricity: 0.0108508
inclination: 47.2136°
perigee height: 1513 km
apogee height: 1686 km
right ascension of ascending node: 291.4711°
argument of perigee: 174.6504°
revolutions per day: 12.18277027
mean anomaly at epoch: 185.5468°
orbit number at epoch: 70885

The dashed part of the orbit path shows where the satellite is in the earth's shadow,  

DLR